Simultaneous Nadir Overpasses (SNOs) Predictions

Prediction of SNOs between METOP-A and NOAA-19 Satellite Orbit:

Table of predicted SNOs for the next 14.0 days since TLE Epoch: 8/14/2021
Index Date (METOP-A) Time (METOP-A) Lat,Lon (METOP-A) SZA (METOP-A ) Date (NOAA-19) Time (NOAA-19) Lat,Lon (NOAA-19) SZA (NOAA-19 ) Distance(km) Time Diff (sec)
1 08/19/2021 16:26:20 80.70, -61.70 68.13 08/19/2021 16:25:07 80.70, -61.64 68.13 1.08 73
2 08/19/2021 17:17:01 -80.70, 105.68 111.86 08/19/2021 17:16:11 -80.70, 105.63 111.87 1.04 50
3 08/19/2021 18:07:42 80.69, -87.20 68.14 08/19/2021 18:07:07 80.70, -87.04 68.15 3.05 35
4 08/19/2021 18:58:23 -80.69, 80.18 111.85 08/19/2021 18:58:11 -80.70, 80.22 111.84 1.25 12
5 08/19/2021 19:49:03 80.70,-112.36 68.18 08/19/2021 19:49:07 80.70,-112.44 68.18 1.60 4
6 08/19/2021 20:39:44 -80.70, 55.02 111.81 08/19/2021 20:40:10 -80.71, 55.18 111.80 2.94 26
7 08/19/2021 21:30:24 80.71,-137.51 68.22 08/19/2021 21:31:06 80.72,-137.48 68.22 0.58 42



Historial Predications of SNOs between METOP-A and NOAA-19
